Regional Weather Roundup
Issued by NWS

Home | Current Version | Previous Version | Text Only | Print | Product List | Glossary Off
Versions: 1 2 3 4 5 6 7 8 9 10 11 12 13 14 15 16 17 18 19 20 21 22 23 24 25 26 27 28 29 30 31 32 33 34 35 36 37 38 39 40 41 42 43 44 45 46 47 48 49 50

000
ASUS43 KLSX 201107
RWRMO

WEATHER SUMMARY FOR MISSOURI
NATIONAL WEATHER SERVICE SPRINGFIELD MO
500 AM CST MON NOV 20 2017

NOTE: "FAIR" INDICATES FEW OR NO CLOUDS BELOW 12,000 FEET WITH NO
       SIGNIFICANT WEATHER AND/OR OBSTRUCTIONS TO VISIBILITY.
       CURRENT SKY AND/OR WEATHER CONDITIONS ARE NOT AVAILABLE FOR
       CHILLICOTHE AND FARMINGTON.

MOZ001>031-035>038-043-044-053-054-201200-
...NORTHERN AND WESTERN MISSOURI...

CITY           SKY/WX    TMP DP  RH WIND       PRES   REMARKS
KANSAS CTY INT CLOUDY    45  27  49 SW16G24   29.96S
KANSAS C DTWN  CLOUDY    46  27  47 S9        29.98S
LEE`S SUMMIT   CLOUDY    43  29  57 S14       29.99F
ST JOSEPH      CLOUDY    43  27  53 S13       29.93F
CHILLICOTHE      N/A     40  30  67 S10       29.96S
KIRKSVILLE     CLEAR     40  30  67 SW13      29.96F

$$
MOZ066>068-077>081-088>096-101>105-201200-
...SOUTHWEST MISSOURI...

CITY           SKY/WX    TMP DP  RH WIND       PRES   REMARKS
SPRINGFIELD    CLEAR     36  28  73 S14       30.10F WCI  27
JOPLIN         CLEAR     45  28  51 S15       30.09F
BRANSON        CLEAR     34  25  69 CALM      30.14F

$$
MOZ032>034-039>042-045>050-055>058-069>072-201200-
...CENTRAL MISSOURI...

CITY           SKY/WX    TMP DP  RH WIND       PRES   REMARKS
COLUMBIA       CLOUDY    36  27  69 S12       30.05F WCI  28
JEFFERSON CITY CLOUDY    38  26  62 SE7       30.08F
ROLLA          CLOUDY    38  24  57 S15       30.10F WCI  29
SEDALIA        CLOUDY    43  30  60 S13       30.04F
WHITEMAN AFB   CLEAR     39  28  64 SW14      29.98F
WARRENSBURG    CLOUDY    37  30  75 S9        30.02S
OSAGE BEACH    CLOUDY    34  26  72 SE7       30.10  WCI  28

$$
MOZ051-052-059>065-201200-
...EAST CENTRAL MISSOURI...

CITY           SKY/WX    TMP DP  RH WIND       PRES   REMARKS
ST LOUIS INTL  CLOUDY    35  22  58 S7        30.11F WCI  29
SPIRIT OF STL  CLOUDY    31  23  72 CALM      30.11F
ST CHARLES     CLOUDY    27  22  81 SE3       30.11F

$$
MOZ072>076-082>087-097>100-106>115-201200-
...SOUTH CENTRAL AND SOUTHEAST MISSOURI...

CITY           SKY/WX    TMP DP  RH WIND       PRES   REMARKS
CAPE GIRARDEAU CLOUDY    26  23  88 CALM      30.22S
FARMINGTON     CLOUDY    31  20  63 S6        30.17S WCI  25
POPLAR BLUFF   PTCLDY    25  23  92 CALM      30.22F
WEST PLAINS    CLOUDY    35  19  52 S6        30.16F

$$



USA.gov is the U.S. government's official web portal to all federal, state and local government web resources and services.